BDR011 UTDD-VILH

Flight info

Callsign BDR011
Flight time N/A
Altitude 37000
Route JD1A JD A238 RAMAN/N0448F370 DCT MOTMO DCT GT DCT LEH
Aircraft B738/M-SDE2E3FGHIRWXY/LB1

Departure

Time N/A
Airport Dushanbe International Airport (UTDD)

Arrival

Time 2026-04-25 07:57
Airport Leh Kushok Bakula Rimpochee Airport (VILH)
Time Latitude Longitude Altitude Speed Heading
2026-04-25 07:20 35.47312 74.99846 37364 ft 493 kts 135°
2026-04-25 07:20 35.45114 75.03073 37274 ft 494 kts 135°
2026-04-25 07:20 35.42963 75.06327 37391 ft 489 kts 135°
2026-04-25 07:20 35.40799 75.09544 37352 ft 486 kts 136°
2026-04-25 07:21 35.36604 75.16079 37396 ft 491 kts 136°
2026-04-25 07:21 35.31972 75.22289 37357 ft 497 kts 137°
2026-04-25 07:22 35.27463 75.28744 37357 ft 498 kts 135°
2026-04-25 07:22 35.23196 75.35294 37430 ft 488 kts 133°
2026-04-25 07:23 35.18828 75.41673 37366 ft 490 kts 136°
2026-04-25 07:23 35.14353 75.48010 37382 ft 495 kts 136°
2026-04-25 07:24 35.09878 75.54421 37329 ft 497 kts 135°
2026-04-25 07:24 35.05434 75.60843 37362 ft 492 kts 136°
2026-04-25 07:25 35.01038 75.67199 37358 ft 490 kts 136°
2026-04-25 07:25 34.96635 75.73556 37358 ft 491 kts 136°
2026-04-25 07:26 34.92248 75.79860 37327 ft 491 kts 136°
2026-04-25 07:26 34.87820 75.86206 37340 ft 492 kts 136°
2026-04-25 07:27 34.83395 75.92550 37330 ft 491 kts 136°
2026-04-25 07:27 34.78980 75.98870 37352 ft 489 kts 136°
2026-04-25 07:28 34.74577 76.05166 37296 ft 488 kts 136°
2026-04-25 07:28 34.70187 76.11422 37293 ft 487 kts 137°
2026-04-25 07:29 34.65767 76.17682 37296 ft 489 kts 135°
2026-04-25 07:29 34.61379 76.23936 37288 ft 491 kts 136°
2026-04-25 07:30 34.56888 76.30292 37284 ft 493 kts 136°
2026-04-25 07:30 34.52412 76.36618 37276 ft 495 kts 136°
2026-04-25 07:31 34.47923 76.42957 37260 ft 495 kts 135°
2026-04-25 07:31 34.43420 76.49302 37292 ft 498 kts 136°
2026-04-25 07:32 34.38907 76.55638 37260 ft 492 kts 135°
2026-04-25 07:32 34.34445 76.61901 37287 ft 491 kts 136°
2026-04-25 07:33 34.29960 76.68164 37257 ft 493 kts 136°
2026-04-25 07:33 34.25500 76.74446 37262 ft 491 kts 135°
2026-04-25 07:34 34.21023 76.80700 37233 ft 493 kts 135°
2026-04-25 07:34 34.16550 76.86956 37250 ft 492 kts 136°
2026-04-25 07:35 34.12062 76.93193 37235 ft 492 kts 137°
2026-04-25 07:35 34.07550 76.99417 37172 ft 493 kts 135°
2026-04-25 07:36 34.05392 77.02634 37024 ft 493 kts 134°
2026-04-25 07:36 34.03172 77.05795 36513 ft 492 kts 136°
2026-04-25 07:36 34.00911 77.08873 35887 ft 491 kts 136°
2026-04-25 07:36 33.98636 77.11946 35273 ft 491 kts 136°
2026-04-25 07:37 33.96362 77.15030 34612 ft 494 kts 136°
2026-04-25 07:37 33.94078 77.18143 33894 ft 498 kts 135°
2026-04-25 07:37 33.91784 77.21291 33144 ft 501 kts 135°
2026-04-25 07:37 33.89549 77.24379 32530 ft 495 kts 135°
2026-04-25 07:38 33.87311 77.27468 32177 ft 487 kts 135°
2026-04-25 07:38 33.85110 77.30503 31625 ft 486 kts 136°
2026-04-25 07:38 33.83002 77.33407 31172 ft 484 kts 136°
2026-04-25 07:38 33.80841 77.36378 30642 ft 481 kts 134°
2026-04-25 07:39 33.78635 77.39405 30135 ft 478 kts 135°
2026-04-25 07:39 33.76464 77.42392 29566 ft 477 kts 135°
2026-04-25 07:39 33.74324 77.45336 29038 ft 473 kts 134°
2026-04-25 07:39 33.72186 77.48265 28524 ft 468 kts 135°
2026-04-25 07:40 33.70072 77.51157 28061 ft 464 kts 134°
2026-04-25 07:40 33.67982 77.54013 27720 ft 456 kts 134°
2026-04-25 07:40 33.65949 77.56793 27353 ft 444 kts 134°
2026-04-25 07:40 33.63950 77.59533 26638 ft 437 kts 135°
2026-04-25 07:41 33.61982 77.62215 26046 ft 429 kts 134°
2026-04-25 07:41 33.60086 77.64797 25457 ft 421 kts 134°
2026-04-25 07:41 33.58161 77.67431 24752 ft 418 kts 131°
2026-04-25 07:41 33.57208 77.69092 24389 ft 418 kts 118°
2026-04-25 07:42 33.56397 77.71840 24182 ft 404 kts 101°
2026-04-25 07:42 33.56243 77.75109 24044 ft 385 kts 82°
2026-04-25 07:42 33.56857 77.78126 23978 ft 361 kts 64°
2026-04-25 07:43 33.58054 77.80629 23889 ft 332 kts 47°
2026-04-25 07:43 33.59615 77.82494 23758 ft 304 kts 31°
2026-04-25 07:43 33.61354 77.83738 23613 ft 280 kts 18°
2026-04-25 07:43 33.63136 77.84456 23364 ft 264 kts
2026-04-25 07:44 33.64921 77.84774 23088 ft 256 kts 359°
2026-04-25 07:44 33.66686 77.84833 22763 ft 252 kts 351°
2026-04-25 07:44 33.68371 77.84518 22644 ft 240 kts 337°
2026-04-25 07:44 33.69864 77.83671 22696 ft 242 kts 326°
2026-04-25 07:45 33.71331 77.82660 22706 ft 243 kts 325°
2026-04-25 07:45 33.72808 77.81674 22669 ft 242 kts 326°
2026-04-25 07:45 33.74296 77.80735 22671 ft 241 kts 327°
2026-04-25 07:45 33.75767 77.79843 22662 ft 239 kts 329°
2026-04-25 07:46 33.77250 77.78979 22668 ft 235 kts 329°
2026-04-25 07:46 33.78743 77.78128 22683 ft 241 kts 329°
2026-04-25 07:46 33.80269 77.77266 22675 ft 242 kts 330°
2026-04-25 07:46 33.81795 77.76414 22656 ft 240 kts 330°
2026-04-25 07:47 33.83309 77.75581 22679 ft 239 kts 331°
2026-04-25 07:47 33.84819 77.74758 22694 ft 238 kts 330°
2026-04-25 07:47 33.86330 77.73934 22735 ft 238 kts 332°
2026-04-25 07:47 33.87837 77.73116 22744 ft 236 kts 330°
2026-04-25 07:48 33.89333 77.72298 22760 ft 236 kts 330°
2026-04-25 07:48 33.90814 77.71498 22482 ft 232 kts 330°
2026-04-25 07:48 33.92287 77.70697 21980 ft 233 kts 330°
2026-04-25 07:48 33.93770 77.69889 21403 ft 235 kts 330°
2026-04-25 07:49 33.95205 77.69110 21245 ft 218 kts 330°
2026-04-25 07:49 33.96573 77.68369 20877 ft 214 kts 329°
2026-04-25 07:49 33.97922 77.67635 20467 ft 213 kts 330°
2026-04-25 07:49 33.99272 77.66901 20033 ft 213 kts 330°
2026-04-25 07:50 34.00566 77.66077 19666 ft 207 kts 320°
2026-04-25 07:50 34.01705 77.65035 19330 ft 203 kts 316°
2026-04-25 07:50 34.02801 77.63982 18990 ft 201 kts 315°
2026-04-25 07:50 34.03891 77.62939 18612 ft 200 kts 315°
2026-04-25 07:51 34.04987 77.61900 18143 ft 201 kts 315°
2026-04-25 07:51 34.06086 77.60868 17730 ft 199 kts 316°
2026-04-25 07:51 34.07171 77.59858 17312 ft 194 kts 316°
2026-04-25 07:51 34.08209 77.58895 16886 ft 184 kts 317°
2026-04-25 07:52 34.09346 77.58179 16371 ft 186 kts 334°
2026-04-25 07:52 34.10537 77.57633 15904 ft 182 kts 333°
2026-04-25 07:52 34.11708 77.57078 15407 ft 180 kts 334°
2026-04-25 07:52 34.12864 77.56524 14909 ft 178 kts 334°
2026-04-25 07:53 34.13995 77.55924 14652 ft 176 kts 321°
2026-04-25 07:53 34.14760 77.54806 14602 ft 174 kts 301°
2026-04-25 07:53 34.15462 77.53613 14538 ft 173 kts 302°
2026-04-25 07:53 34.16165 77.52444 14526 ft 172 kts 303°
2026-04-25 07:54 34.16862 77.51280 14477 ft 169 kts 302°
2026-04-25 07:54 34.17491 77.50103 14133 ft 165 kts 286°
2026-04-25 07:54 34.17446 77.48769 13817 ft 162 kts 248°
2026-04-25 07:54 34.16713 77.47726 13319 ft 172 kts 216°
2026-04-25 07:55 34.15686 77.46990 12865 ft 170 kts 214°
2026-04-25 07:55 34.14585 77.46527 12309 ft 171 kts 181°
2026-04-25 07:55 34.13520 77.47101 11861 ft 173 kts 137°
2026-04-25 07:55 34.12747 77.48230 11452 ft 178 kts 128°
2026-04-25 07:56 34.12223 77.49624 11394 ft 187 kts 95°
2026-04-25 07:56 34.12301 77.50633 11164 ft 177 kts 64°
2026-04-25 07:56 34.12964 77.52429 10663 ft 175 kts 65°
2026-04-25 07:56 34.13222 77.53313 10600 ft 158 kts 70°
2026-04-25 07:57 34.13532 77.54387 10696 ft 103 kts 71°
2026-04-25 07:57 34.13696 77.54951 10751 ft 39 kts 70°
2026-04-25 07:57 34.13763 77.55181 10773 ft 27 kts 70°
2026-04-25 07:57 34.13819 77.55378 10794 ft 12 kts 70°
2026-04-25 07:58 34.13845 77.55424 10798 ft 6 kts 32°
2026-04-25 07:58 34.13886 77.55431 10801 ft 6 kts 354°
2026-04-25 07:58 34.13926 77.55426 10799 ft 6 kts 352°
2026-04-25 07:58 34.13966 77.55419 10801 ft 6 kts 351°
2026-04-25 07:59 34.14003 77.55413 10804 ft 5 kts 353°
2026-04-25 07:59 34.14037 77.55412 10803 ft 5 kts 13°
2026-04-25 07:59 34.14042 77.55417 10806 ft 0 kts 44°
2026-04-25 07:59 34.14044 77.55419 10806 ft 1 kts 32°
2026-04-25 08:00 34.14060 77.55413 10803 ft 6 kts 332°
2026-04-25 08:00 34.14111 77.55382 10804 ft 9 kts 334°
2026-04-25 08:00 34.14169 77.55351 10803 ft 9 kts 336°
2026-04-25 08:00 34.14198 77.55296 10800 ft 8 kts 251°
2026-04-25 08:01 34.14153 77.55281 10796 ft 5 kts 158°
2026-04-25 08:01 34.14151 77.55282 10796 ft 0 kts 158°